OSCAR 7 (AO-7)

Last updated on Sun Aug 09 2026 00:03:15 GMT+0000 (Coordinated Universal Time)

1 07530U 74089B 26220.58281568 -.00000034 00000+0 76319-4 0 9995 2 07530 101.9916 234.3765 0012462 32.9196 85.9270 12.53698954367086
UTC large
Height (km)
Speed (km/s)
/
Latitude / Longitude
Inclination (degrees)
Orbital Period (minutes)
Azimuth
Elevation
Range (km)
Doppler Factor

Next 0 passes for location: London (51.5072 / 0.1276)

No passes found over London.
OSCAR 7 (AO-7)